Location: Dürabuch
(48.2640°N, 11.2185°E)
Time: 10:03:32
(UTC+00:00)

Cosmos 841 Rocket - Pass Details

Date: 23 May 2024
Orbit: 744 x 770 km, 74.0° (Epoch: 15 June)

Event Time Altitude Azimuth Distance (km) Brightness Sun altitude
Rises 00:24:48 0° 338° (NNW) 3,232 7.5 -19.2°
Reaches altitude 10° 00:27:11 10° 341° (NNW) 2,306 6.7 -19.1°
Maximum altitude 00:32:25 71° 65° (ENE) 812 3.7 -18.8°
Enters shadow 00:36:24 18° 148° (SSE) 1,833 5.1 -18.5°
